Location: Unspecified
(0.0000°N, 0.0000°E)
Time: 22:46:43
(UTC+00:00)

PAYLOAD E - Visible Passes

Search period start: 05 October 2024 00:00
Search period end: 15 October 2024 00:00
Orbit: 1415 x 1418 km, 82.5° (Epoch: 05 October)

Date Brightness Start Highest point End Pass type
(mag) Time Alt. Az. Time Alt. Az. Time Alt. Az.
05 Oct 8.7 02:51:39 10° NNE 02:59:23 42° E 03:07:08 10° SSE visible
05 Oct 8.6 04:47:52 10° NW 04:54:04 23° W 05:00:19 10° SW visible
06 Oct 7.6 03:40:21 36° NNW 03:44:14 78° W 03:52:39 10° S visible
07 Oct 9.0 02:33:47 33° ENE 02:34:26 33° E 02:41:41 10° SSE visible
07 Oct 8.4 04:28:10 29° W 04:29:06 30° W 04:36:07 10° SSW visible
08 Oct 7.8 03:20:21 72° SSE 03:20:21 72° SSE 03:27:42 10° S visible
09 Oct 9.5 02:12:08 22° ESE 02:12:08 22° ESE 02:16:05 10° SE visible
09 Oct 8.4 04:06:26 32° SW 04:06:26 32° SW 04:11:43 10° SSW visible
10 Oct 8.7 02:57:57 38° SSE 02:57:57 38° SSE 03:02:40 10° S visible
11 Oct 10.0 01:49:19 12° SE 01:49:19 12° SE 01:50:13 10° SE visible
11 Oct 8.8 03:43:35 27° SSW 03:43:35 27° SSW 03:47:09 10° SSW visible
12 Oct 9.4 02:34:49 23° SSE 02:34:49 23° SSE 02:37:31 10° SSE visible
13 Oct 9.3 03:20:12 20° SSW 03:20:12 20° SSW 03:22:27 10° S visible
14 Oct 9.9 02:11:15 14° SSE 02:11:15 14° SSE 02:12:15 10° SSE visible
